{"data":{"norad_id":41875,"epoch":"2026-05-25T04:38:34.143072Z","epoch_age_seconds":57767,"freshness":"FRESH","line1":"1 41875U 16073A   26145.19345073  .00000249  00000+0  57944-4 0  9999","line2":"2 41875  98.1272  40.2251 0001456  79.3669 280.7697 14.62754657505462","mean_motion":14.62754657,"eccentricity":0.0001456,"inclination_deg":98.1272,"raan_deg":40.2251,"arg_perigee_deg":79.3669,"mean_anomaly_deg":280.7697,"bstar":5.7944e-5,"rev_number":50546,"period_min":98.444396885622,"perigee_km":683.2651230316,"apogee_km":685.32170276783,"semimajor_km":7062.4304128997,"source":"CELESTRAK","updated_at":"2026-05-25T13:38:12.824603Z"}}